Norfolk, NE

10:06 AM CDT on September 24, 2017 (GMT -0500)
Stefan Memorial

Weather History for KOFK - September, 2011

Change the Weather History Date:

Thursday, September 22, 2011

  Actual Average Record
Temperature  
Mean Temperature 50 °F 61 °F  
Max Temperature 65 °F 74 °F 96 °F (1940)
Min Temperature 34 °F 48 °F 26 °F (1995)
Degree Days  
Heating Degree Days 15 6  
Month to date heating degree days 128 69  
Since 1 July heating degree days 128 85  
Cooling Degree Days 0 2  
Month to date cooling degree days 45 82  
Year to date cooling degree days 1026 898  
Moisture  
Dew Point 35 °F    
Average Humidity 62    
Maximum Humidity 92    
Minimum Humidity 31    
Precipitation  
Precipitation 0.00 in 0.09 in 1.32 in (1994)
Month to date precipitation 0.63 1.97  
Year to date precipitation 19.08 22.50  
Snow  
Snow 0.00 in 0.00 in - ()
Month to date snowfall 0.0 0.0  
Since 1 July snowfall 0.0 0.0  
Snow Depth 0.00 in    
Sea Level Pressure  
Sea Level Pressure 30.18 in    
Wind  
Wind Speed 4 mph (NW)    
Max Wind Speed 15 mph    
Max Gust Speed 17 mph    
Visibility 8 miles    
Events Fog    
T = Trace of Precipitation, MM = Missing Value Source: NWS Daily Summary

Daily Weather History Graph

Daily Weather History Graph

Search for Another Location

Airport or City:

Trip Planner

Search our weather history database for the weather conditions in past years. The results will help you decide how hot, cold, wet, or windy it might be!

Date:

Astronomy

Sep. 22, 2011 Rise Set
Actual Time 7:16 AM CDT 7:27 PM CDT
Civil Twilight 6:48 AM CDT 7:55 PM CDT
Nautical Twilight 6:16 AM CDT 8:27 PM CDT
Astronomical Twilight 5:42 AM CDT 9:01 PM CDT
Moon 1:34 AM CDT (9/22) 4:25 PM CDT (9/22)
Length of Visible Light 13h 06m
Length of Day
12h 10m
Waning Crescent, 28% of the Moon is Illuminated
Sep 22
Waning Crescent
Sep 27
New
Oct 3
First Quarter
Oct 11
Full
Oct 19
Last Quarter

Hourly Weather History & Observations

Time (CDT) Temp. Windchill Dew Point Humidity Pressure Visibility Wind Dir Wind Speed Gust Speed Precip Events Conditions
12:56 AM 39.9 °F 37.8 °F 37.9 °F 93% 30.19 in 10.0 mi West 3.5 mph - N/A   Clear
1:56 AM 37.9 °F - 36.0 °F 93% 30.19 in 10.0 mi Calm Calm - N/A   Clear
2:56 AM 39.0 °F - 36.0 °F 89% 30.19 in 10.0 mi Calm Calm - N/A   Clear
3:56 AM 39.0 °F - 37.0 °F 93% 30.18 in 10.0 mi Calm Calm - N/A   Clear
4:56 AM 37.0 °F - 35.1 °F 93% 30.18 in 7.0 mi Calm Calm - N/A   Clear
5:18 AM 37.4 °F 34.9 °F 35.6 °F 93% 30.17 in 2.0 mi NNW 3.5 mph - N/A   Scattered Clouds
5:20 AM 35.6 °F 32.8 °F 35.6 °F 100% 30.17 in 1.0 mi NNW 3.5 mph - N/A   Mist
5:25 AM 35.6 °F 32.8 °F 35.6 °F 100% 30.16 in 0.2 mi NNW 3.5 mph - N/A Fog Fog
5:45 AM 35.6 °F 32.8 °F 33.8 °F 93% 30.17 in 0.8 mi WSW 3.5 mph - N/A   Mist
5:48 AM 35.6 °F 32.8 °F 33.8 °F 93% 30.17 in 1.2 mi WSW 3.5 mph - N/A   Scattered Clouds
5:53 AM 35.6 °F 31.7 °F 33.8 °F 93% 30.17 in 4.0 mi WSW 4.6 mph - N/A   Partly Cloudy
5:56 AM 35.1 °F 31.0 °F 34.0 °F 96% 30.18 in 5.0 mi WSW 4.6 mph - N/A   Partly Cloudy
6:56 AM 36.0 °F 31.1 °F 34.0 °F 93% 30.20 in 7.0 mi West 5.8 mph - N/A   Clear
8:56 AM 43.0 °F 39.5 °F 37.9 °F 82% 30.23 in 10.0 mi NNW 5.8 mph - N/A   Clear
9:56 AM 48.9 °F - 37.9 °F 66% 30.24 in 10.0 mi NNW 6.9 mph - N/A   Clear
10:56 AM 52.0 °F - 36.0 °F 54% 30.24 in 10.0 mi NNW 8.1 mph - N/A   Clear
11:56 AM 55.0 °F - 37.9 °F 53% 30.22 in 10.0 mi NW 5.8 mph - N/A   Clear
12:56 PM 59.0 °F - 37.9 °F 46% 30.20 in 10.0 mi Variable 4.6 mph - N/A   Clear
1:56 PM 60.1 °F - 37.0 °F 42% 30.18 in 10.0 mi NNW 4.6 mph 16.1 mph N/A   Clear
4:56 PM 64.0 °F - 34.0 °F 33% 30.13 in 10.0 mi WNW 6.9 mph - N/A   Clear
5:56 PM 63.0 °F - 33.1 °F 33% 30.13 in 10.0 mi North 8.1 mph - N/A   Clear
6:56 PM 60.1 °F - 33.1 °F 36% 30.14 in 10.0 mi North 8.1 mph - N/A   Clear
7:56 PM 52.0 °F - 34.0 °F 50% 30.15 in 10.0 mi North 3.5 mph - N/A   Clear
8:56 PM 51.1 °F - 34.0 °F 52% 30.17 in 10.0 mi Calm Calm - N/A   Clear
9:56 PM 46.9 °F - 35.1 °F 63% 30.16 in 10.0 mi Calm Calm - N/A   Clear
10:56 PM 39.9 °F 37.8 °F 33.1 °F 77% 30.17 in 10.0 mi ESE 3.5 mph - N/A   Clear
11:56 PM 39.0 °F - 34.0 °F 82% 30.18 in 10.0 mi Calm Calm - N/A   Clear